Temp
10 9 9 10 10 10 10 9 8 7 7 7 7 7 6 6 5 3 3 1 1 1 0 0 0 0 -0 -1 -1 -1 -3 -3 -3 -3 -2 -2 -1 -1
8 9 9 9 9 9 9 8 8 7 6 6 6 5 5 4 3 2 2 1 1 0 -0 0 -0 -1 -1 -1 -2 -3 -3 -3 -3 -3 -2 -2 -2 -2
8 8 8 8 8 8 8 7 7 6 6 5 5 4 3 3 2 2 1 1 0 0 -0 -0 -0 -0 -1 -2 -2 -2 -3 -4 -4 -3 -3 -3 -3 -2
7 6 7 7 7 7 7 7 6 6 6 5 4 4 3 2 1 1 0 -0 -1 -1 -1 -1 -0 -1 -2 -2 -2 -2 -4 -4 -4 -4 -4 -4 -3 -3
5 5 5 5 5 5 5 6 5 5 4 3 3 2 1 1 0 -0 -1 -1 -1 -1 -1 -1 -2 -2 -2 -2 -2 -2 -3 -4 -3 -3 -3 -2 -2 -4
4 4 4 5 5 5 4 4 3 3 2 2 2 1 0 -0 -1 -1 -1 -1 -1 -2 -2 -2 -2 -2 -3 -3 -3 -3 -3 -3 -3 -3 -3 -4 -5 -5
3 4 4 4 4 3 2 2 2 1 1 1 0 -0 -1 -1 -1 -1 -2 -2 -2 -1 -1 -2 -3 -3 -3 -3 -3 -3 -3 -3 -3 -3 -4 -5 -5 -5
3 3 3 3 2 1 1 1 1 0 0 0 0 -0 -1 -1 -2 -2 -3 -3 -2 -3 -2 -2 -3 -3 -3 -3 -3 -3 -2 -2 -3 -3 -3 -5 -5 -6
2 2 2 1 1 1 1 1 1 0 0 -0 -1 -1 -2 -3 -3 -4 -4 -4 -3 -4 -3 -1 -2 -2 -2 -2 -2 -2 -2 -3 -3 -3 -3 -3 -3 -5
2 1 1 1 1 1 0 -0 -0 -1 -1 -2 -2 -3 -3 -4 -4 -4 -5 -4 -4 -4 -3 -2 -2 -2 -2 -2 -1 -2 -3 -3 -4 -4 -4 -4 -4 -4
2 1 0 1 0 -0 -0 -1 -2 -2 -3 -3 -3 -4 -4 -5 -5 -5 -5 -5 -4 -3 -3 -3 -2 -2 -1 -2 -3 -3 -4 -5 -4 -5 -5 -5 -4 -4
0 0 0 -0 -1 -1 -1 -2 -3 -3 -4 -4 -4 -5 -5 -6 -6 -5 -5 -5 -5 -5 -4 -4 -3 -4 -3 -2 -3 -4 -4 -5 -5 -4 -5 -5 -5 -5
-0 -0 -1 -1 -2 -3 -3 -3 -4 -4 -4 -5 -5 -5 -6 -6 -6 -5 -5 -5 -5 -5 -6 -7 -5 -6 -7 -5 -2 -3 -3 -4 -4 -4 -5 -5 -6 -6
-1 -1 -2 -2 -3 -3 -4 -4 -5 -5 -5 -6 -6 -6 -6 -6 -5 -5 -5 -5 -5 -5 -5 -6 -6 -6 -7 -7 -5 -3 -3 -3 -4 -4 -5 -5 -6 -6
-1 -2 -2 -3 -3 -4 -5 -5 -5 -6 -6 -6 -6 -6 -6 -5 -5 -5 -5 -5 -5 -5 -5 -6 -6 -7 -7 -7 -7 -4 -5 -3 -4 -4 -6 -6 -5 -5
-2 -2 -2 -3 -4 -4 -5 -6 -6 -6 -6 -6 -6 -6 -6 -5 -5 -5 -5 -5 -5 -5 -6 -7 -7 -8 -7 -7 -7 -5 -5 -7 -5 -5 -6 -6 -5 -5
-2 -2 -3 -3 -4 -5 -5 -6 -6 -6 -7 -7 -6 -6 -5 -5 -5 -5 -5 -5 -5 -5 -5 -6 -8 -8 -8 -8 -7 -6 -5 -5 -6 -6 -7 -6 -5 -5
-2 -2 -3 -4 -4 -5 -5 -6 -6 -7 -7 -6 -6 -6 -6 -6 -5 -6 -6 -6 -6 -6 -6 -6 -7 -7 -7 -6 -6 -6 -6 -6 -6 -7 -7 -7 -6 -4
-2 -2 -3 -4 -5 -5 -6 -6 -6 -6 -6 -6 -6 -6 -6 -6 -6 -6 -6 -7 -6 -7 -6 -7 -7 -8 -9 -8 -6 -7 -7 -7 -7 -7 -7 -7 -7 -5
-2 -2 -3 -4 -4 -5 -5 -6 -6 -7 -7 -7 -7 -6 -6 -6 -6 -7 -7 -7 -7 -7 -6 -6 -7 -9 -9 -9 -9 -5 -6 -7 -7 -7 -7 -7 -7 -6
-2 -2 -2 -3 -4 -4 -5 -6 -6 -7 -7 -7 -7 -7 -7 -7 -7 -7 -8 -8 -9 -9 -8 -7 -8 -9 -9 -9 -9 -6 -5 -7 -8 -8 -8 -8 -8 -7
-2 -2 -2 -3 -3 -4 -5 -5 -6 -7 -7 -7 -7 -8 -8 -8 -8 -8 -8 -8 -8 -9 -8 -8 -8 -8 -8 -8 -8 -8 -7 -6 -6 -7 -8 -8 -8 -9
-2 -2 -2 -3 -3 -4 -4 -4 -5 -6 -7 -7 -8 -8 -8 -8 -8 -9 -9 -9 -9 -9 -9 -9 -9 -9 -9 -9 -8 -8 -8 -7 -7 -6 -6 -7 -7 -7
Height
1520 1520 1520 1520 1521 1520 1521 1521 1521 1518 1517 1518 1518 1518 1518 1517 1516 1518 1519 1520 1521 1521 1521 1521 1520 1519 1519 1519 1518 1517 1517 1517 1516 1516 1517 1518 1517 1516
1514 1515 1515 1515 1514 1515 1515 1515 1515 1515 1514 1513 1513 1513 1513 1513 1512 1513 1514 1514 1515 1515 1515 1515 1515 1514 1513 1513 1512 1513 1511 1511 1510 1512 1513 1513 1512 1511
1509 1509 1509 1509 1510 1509 1510 1510 1510 1511 1510 1510 1509 1509 1509 1509 1509 1509 1510 1510 1510 1511 1511 1510 1510 1509 1508 1508 1507 1506 1505 1505 1504 1507 1506 1506 1504 1504
1503 1504 1504 1505 1505 1505 1506 1506 1507 1507 1507 1506 1505 1505 1506 1506 1506 1506 1506 1506 1506 1507 1506 1506 1506 1505 1505 1503 1501 1499 1499 1500 1499 1500 1500 1499 1498 1498
1498 1500 1500 1501 1502 1502 1502 1503 1502 1503 1503 1503 1502 1501 1502 1502 1503 1503 1503 1503 1503 1503 1502 1502 1501 1499 1498 1496 1495 1494 1495 1495 1494 1494 1493 1492 1491 1491
1495 1496 1497 1498 1498 1499 1498 1499 1499 1499 1500 1500 1499 1499 1500 1500 1500 1500 1500 1499 1499 1499 1497 1497 1495 1494 1493 1492 1491 1490 1490 1490 1489 1488 1487 1486 1486 1487
1492 1494 1494 1494 1495 1496 1497 1497 1498 1497 1497 1498 1497 1497 1497 1497 1497 1497 1496 1495 1495 1494 1493 1492 1491 1491 1489 1488 1487 1486 1486 1485 1484 1482 1481 1481 1480 1480
1491 1492 1492 1493 1494 1496 1496 1496 1496 1495 1495 1495 1495 1495 1494 1494 1494 1493 1493 1492 1492 1490 1489 1490 1488 1488 1487 1486 1484 1482 1481 1480 1478 1477 1476 1474 1473 1472
1491 1492 1493 1494 1494 1495 1495 1495 1494 1493 1493 1493 1493 1492 1492 1491 1491 1491 1490 1489 1489 1489 1486 1486 1486 1485 1484 1482 1479 1478 1476 1475 1474 1473 1471 1469 1467 1465
1491 1493 1493 1493 1493 1493 1493 1493 1491 1490 1489 1490 1490 1490 1489 1488 1488 1487 1487 1487 1487 1486 1484 1482 1483 1481 1480 1477 1474 1472 1472 1472 1470 1468 1466 1464 1461 1459
1492 1492 1492 1491 1492 1492 1491 1491 1489 1488 1487 1487 1487 1486 1486 1486 1485 1485 1485 1485 1484 1485 1483 1481 1480 1477 1474 1471 1470 1471 1471 1468 1465 1463 1460 1457 1455 1453
1491 1492 1491 1491 1490 1489 1489 1487 1486 1485 1484 1484 1484 1483 1483 1483 1483 1483 1483 1483 1483 1482 1480 1480 1478 1476 1471 1470 1470 1469 1467 1464 1461 1457 1454 1451 1449 1446
1491 1490 1489 1489 1487 1486 1485 1484 1483 1482 1481 1481 1480 1480 1480 1481 1481 1481 1480 1480 1480 1479 1479 1477 1474 1474 1471 1466 1461 1462 1459 1457 1454 1451 1448 1446 1444 1442
1489 1489 1487 1486 1485 1484 1482 1481 1480 1479 1478 1478 1478 1478 1478 1478 1478 1478 1478 1477 1476 1476 1475 1474 1471 1470 1468 1463 1457 1456 1454 1450 1448 1445 1444 1442 1440 1437
1487 1486 1485 1483 1482 1481 1479 1477 1476 1476 1475 1476 1476 1476 1476 1476 1475 1475 1475 1474 1472 1472 1470 1469 1467 1466 1464 1459 1454 1450 1447 1443 1442 1440 1438 1435 1433 1431
1485 1483 1482 1481 1480 1478 1476 1475 1474 1473 1473 1473 1474 1474 1474 1473 1473 1472 1471 1470 1468 1468 1467 1465 1463 1460 1457 1454 1451 1445 1445 1440 1438 1435 1431 1428 1426 1424
1482 1481 1480 1478 1476 1474 1473 1472 1472 1471 1471 1470 1471 1470 1470 1470 1469 1468 1467 1466 1465 1463 1462 1462 1459 1455 1452 1449 1444 1441 1438 1435 1433 1430 1425 1420 1418 1415
1479 1478 1477 1475 1473 1472 1470 1469 1469 1468 1468 1468 1467 1467 1466 1466 1465 1464 1463 1462 1459 1458 1456 1455 1452 1448 1446 1443 1440 1435 1432 1429 1427 1423 1419 1413 1409 1408
1476 1475 1473 1471 1470 1468 1467 1466 1466 1465 1464 1463 1464 1463 1462 1462 1461 1460 1459 1457 1455 1453 1451 1449 1447 1444 1438 1434 1432 1430 1424 1423 1420 1416 1413 1408 1403 1399
1473 1472 1470 1468 1466 1465 1464 1462 1462 1461 1459 1459 1458 1458 1458 1457 1456 1454 1453 1451 1449 1447 1444 1443 1441 1438 1434 1430 1424 1420 1420 1415 1414 1408 1404 1400 1396 1391
1469 1468 1466 1465 1463 1461 1459 1458 1457 1456 1455 1454 1453 1453 1452 1451 1449 1448 1446 1445 1443 1441 1437 1436 1435 1432 1427 1423 1417 1413 1412 1410 1407 1402 1398 1393 1389 1384
1465 1464 1463 1460 1458 1457 1455 1453 1452 1451 1450 1449 1448 1446 1445 1443 1442 1441 1440 1438 1436 1434 1430 1429 1427 1424 1421 1417 1411 1406 1402 1400 1399 1395 1392 1390 1386 1378
1461 1459 1458 1456 1454 1452 1450 1448 1446 1445 1444 1443 1441 1440 1438 1436 1436 1434 1432 1431 1429 1426 1424 1420 1418 1417 1413 1410 1405 1399 1395 1391 1387 1382 1380 1380 1376 1372
Wind_Speed
28 27 26 26 28 27 27 26 23 26 24 23 22 21 20 21 22 22 22 26 27 27 25 24 25 23 23 24 23 21 18 19 20 19 19 19 19 19
22 25 24 24 25 24 25 27 23 22 22 18 17 17 18 18 21 22 23 23 23 21 19 20 20 20 20 21 19 19 18 18 17 17 19 19 19 18
24 22 23 21 21 22 21 17 16 15 16 17 18 18 18 17 16 16 15 15 15 16 17 17 18 19 20 19 20 20 19 17 17 18 19 19 18 18
20 19 18 17 17 17 17 17 18 19 18 18 15 15 14 13 13 13 12 13 13 15 17 17 18 19 19 22 23 22 19 15 17 17 17 17 18 18
13 13 12 12 12 13 14 13 13 13 13 12 11 10 10 10 11 12 13 14 15 17 17 17 18 21 22 21 20 18 19 18 20 19 19 19 19 19
9 8 8 8 9 11 10 9 9 8 7 7 8 9 9 10 12 13 14 15 16 17 18 19 20 17 16 17 17 17 16 17 18 19 20 20 19 19
9 9 8 7 7 6 6 6 6 6 7 8 8 8 9 10 12 13 15 16 16 18 16 13 14 15 16 15 16 16 17 18 20 21 21 20 20 20
9 7 6 6 4 5 5 6 6 6 7 8 9 10 11 12 13 14 16 17 15 12 12 7 14 12 14 16 17 19 20 21 22 22 21 19 18 20
8 7 6 5 3 3 4 6 7 8 10 10 10 11 11 12 13 14 15 14 12 9 14 10 11 11 14 17 21 21 20 17 17 21 23 23 24 24
8 6 4 2 2 4 7 9 10 11 12 12 12 11 12 12 12 13 11 9 9 9 14 17 12 14 17 19 19 15 11 12 21 21 23 25 26 26
4 2 1 4 6 8 10 11 11 12 13 13 13 12 12 12 11 10 8 9 10 9 13 17 13 20 20 11 5 3 11 18 19 19 22 24 26 27
1 2 4 6 8 10 11 12 12 12 12 12 13 13 11 11 9 9 10 12 14 13 9 14 17 19 15 4 7 20 18 11 19 18 20 21 23 24
3 5 7 9 10 11 11 12 12 12 11 11 11 10 9 9 10 11 13 15 16 17 14 17 20 19 19 26 25 22 19 21 20 18 18 18 15 19
5 7 9 11 11 13 13 13 12 11 10 9 8 8 9 10 12 14 15 16 16 16 14 15 20 19 21 27 31 28 27 26 22 16 10 17 17 19
7 9 10 11 11 11 12 12 11 10 9 8 9 10 12 12 13 14 15 16 16 15 15 16 19 19 22 27 32 33 33 31 21 15 20 20 21 20
8 9 11 12 12 11 11 10 9 9 10 10 11 13 13 13 14 15 15 15 17 12 11 14 17 20 24 27 30 33 29 30 25 23 23 25 23 23
9 10 11 12 12 12 12 11 10 11 11 13 14 14 14 14 14 14 15 16 17 17 17 12 14 20 23 27 31 30 27 24 23 24 27 28 25 24
10 11 12 12 12 13 13 13 13 13 15 16 16 15 15 15 16 15 15 17 19 19 20 20 20 22 23 25 24 23 26 22 22 27 28 29 29 24
12 13 13 14 13 14 14 15 15 16 17 17 18 17 17 17 18 18 17 18 20 21 21 21 20 21 24 28 30 24 22 26 28 29 28 26 29 29
13 14 14 15 15 16 16 17 17 18 19 19 19 19 20 20 21 21 21 21 23 24 24 22 21 20 23 28 32 31 27 28 25 29 29 26 29 30
15 15 15 15 16 17 17 18 19 19 20 21 21 21 22 22 23 23 23 23 24 25 28 26 21 22 25 27 31 33 27 26 27 27 29 30 32 34
15 16 16 17 17 18 18 19 20 20 21 22 22 23 23 25 26 26 26 27 26 27 28 27 24 23 25 26 31 32 32 30 27 28 27 27 28 27
17 17 17 17 18 19 19 20 21 20 20 21 22 23 24 26 27 28 28 28 28 29 29 29 28 25 27 28 29 32 33 33 32 33 34 31 30 29
Wind_Direction
271 270 272 274 271 275 274 277 283 281 283 282 280 280 279 279 279 274 269 263 271 278 274 276 277 273 270 273 273 276 281 282 282 285 286 287 285 282
271 267 269 267 269 271 273 274 277 275 270 275 277 282 282 274 268 267 267 272 273 272 269 275 271 272 273 275 279 282 285 284 287 284 281 282 281 276
266 263 266 267 269 269 273 274 274 270 273 275 280 278 273 268 263 268 270 269 269 270 270 273 273 275 280 281 283 284 284 284 282 278 271 272 272 273
257 258 260 262 263 269 272 277 280 279 275 273 272 272 268 266 262 263 266 268 268 271 275 280 282 283 286 283 283 284 286 284 271 272 276 279 281 283
241 248 255 259 266 270 273 276 275 274 272 268 261 260 261 260 263 266 271 276 278 280 284 288 288 286 286 284 284 285 282 279 284 286 286 286 283 280
231 232 244 253 261 266 258 261 261 259 260 251 249 248 253 263 272 272 271 275 280 285 289 290 284 280 286 285 287 289 291 292 292 291 290 289 285 283
214 208 221 230 243 243 249 248 254 257 254 254 254 254 263 268 269 274 279 284 289 292 289 285 278 286 287 290 292 293 294 293 292 289 286 284 281 280
192 188 197 208 201 219 238 244 255 259 265 268 270 268 269 272 277 281 286 293 303 295 291 278 280 284 284 289 289 290 293 290 287 287 286 286 284 280
156 160 167 177 193 229 251 269 277 279 277 279 279 280 279 280 281 283 286 289 290 290 296 297 285 286 285 289 288 289 284 279 285 288 286 288 287 285
145 151 156 193 268 282 288 288 288 290 290 291 289 286 285 284 284 282 278 278 284 296 300 301 304 294 299 297 290 279 265 284 294 285 288 286 284 285
143 161 242 294 291 286 288 290 291 290 288 289 286 282 281 282 279 284 287 290 293 298 292 293 301 311 319 316 288 225 294 300 293 289 286 283 284 287
213 279 296 292 294 295 296 297 295 290 287 284 282 283 283 278 278 278 286 290 296 307 298 293 305 326 327 343 308 301 305 299 301 293 289 287 287 286
298 303 303 306 304 303 306 305 300 294 287 282 277 272 267 265 271 276 280 284 286 285 285 290 301 315 313 312 316 328 325 324 315 308 297 290 286 289
305 305 308 310 310 308 307 302 295 292 284 277 265 254 256 264 272 280 282 283 285 286 285 280 288 304 307 306 307 316 321 323 320 312 305 298 289 290
308 307 308 308 309 304 301 299 297 288 279 268 258 260 266 271 278 280 283 289 291 293 290 284 285 293 292 294 300 307 318 322 323 312 314 305 301 301
309 313 316 311 306 305 308 302 289 277 268 262 261 266 274 281 284 288 290 294 296 298 295 294 290 284 285 287 293 300 312 306 314 314 311 306 302 301
310 312 311 309 311 311 308 300 289 276 269 264 266 271 274 277 281 288 296 299 301 308 306 295 285 282 281 288 291 301 305 302 312 316 314 307 305 307
309 309 310 312 309 305 300 293 284 276 275 274 272 272 276 281 286 288 293 296 300 306 307 309 305 299 291 289 294 302 305 305 313 316 314 307 307 312
307 305 308 308 307 303 297 290 285 278 274 275 274 275 278 281 286 289 294 292 295 301 303 306 308 308 305 302 307 307 307 309 313 308 311 306 309 316
300 301 305 306 306 303 297 291 284 282 280 278 278 278 279 282 286 289 292 294 297 300 302 306 314 311 299 299 300 302 310 312 314 311 317 316 314 319
293 297 299 302 303 301 299 293 288 284 284 284 282 281 282 282 284 286 289 293 298 301 301 305 309 305 305 300 294 303 309 311 314 312 318 315 315 317
288 292 294 296 300 300 299 297 293 290 287 285 284 283 283 283 284 286 288 292 294 298 299 303 305 304 303 300 299 304 308 312 314 312 314 314 308 290
286 288 290 292 295 297 300 299 295 294 291 288 285 283 281 280 283 285 288 290 294 298 301 303 304 304 303 303 303 304 308 310 315 320 319 321 318 315